Location: Lombard
(41.8800°N, 88.0080°W)
Time: 13:08:36
(UTC-06:00)

Transit 4A - Pass Details

Date: 05 December 2023
Orbit: 870 x 973 km, 66.8° (Epoch: 03 March)

Event Time Altitude Azimuth Distance (km) Brightness Sun altitude
Rises 05:34:31 0° 323° (NW) 3,584 - -16.1°
Reaches altitude 10° 05:37:12 10° 317° (NW) 2,620 - -15.7°
Exits shadow 05:39:08 20° 308° (NW) 1,974 9.1 -15.3°
Maximum altitude 05:42:50 42° 249° (WSW) 1,269 8.3 -14.7°
Drops below altitude 10° 05:48:20 10° 180° (S) 2,541 10.4 -13.7°
Sets 05:50:54 0° 173° (S) 3,465 11.2 -13.2°
